Date String (YYYY-MM-DD hh:mm:ss) UTC,Instrument flags,absolute air pressure of the measurement (hPa),sample flow rate (lpm),inlet stack bypass flow (lpm),air temperature of the measurement (°C),ambient temperature measured by the external sensor (°C),aerosol sample conditioner tube jacket temperature (°C),OPC LED temperature (°C),internal box temperature (°C),relative humidity of the measurement (%),span deviation,mass concentration of particles derived from Lorenz-Mie calculation of OPC scattering (μg/m³),mass concentration of particles derived from Lorenz-Mie calculation of OPC scattering (μg/m³),mass concentration of particles derived from Lorenz-Mie calculation of OPC scattering (μg/m³)
DateTimeUTC,F1_M11,P_M11,Q1_M11,Q2_M11,T1_M11,T2_M11,T3_M11,T4_M11,T5_M11,U1_M11,ZSPAN_M11,X2_M11,X0_M11,X1_M11
2024-02-16 00:00:00,SystemResetWarning,0823.8,5.00,000.00,021.3,020.8,000.0,029.8,023.1,21.1,0002.3,0008.48,0013.23,0007.99
2024-02-16 00:01:00,SystemResetWarning,0823.8,5.01,000.00,021.3,020.8,000.0,029.8,023.1,21.2,0002.4,0008.48,0013.33,0007.98
2024-02-16 00:02:00,SystemResetWarning,0823.8,5.01,000.00,021.3,020.8,000.0,029.8,023.1,21.2,0002.1,0008.55,0013.41,0008.04
2024-02-16 00:03:00,SystemResetWarning,0823.8,5.01,000.00,021.3,020.8,000.0,029.8,023.1,21.2,0001.8,0008.57,0013.88,0008.05
2024-02-16 00:04:00,SystemResetWarning,0823.8,4.99,000.00,021.3,020.8,000.0,029.8,023.1,21.3,0001.7,0008.57,0013.74,0008.07
2024-02-16 00:05:00,SystemResetWarning,0823.8,4.99,000.00,021.3,020.8,000.0,029.8,023.1,21.3,0001.3,0008.59,0013.83,0008.10
2024-02-16 00:06:00,SystemResetWarning,0823.8,5.00,000.00,021.3,020.8,000.0,029.8,023.1,21.3,0001.5,0008.68,0013.86,0008.17
2024-02-16 00:07:00,SystemResetWarning,0823.8,5.01,000.00,021.3,020.8,000.0,029.8,023.1,21.3,0001.6,0008.83,0016.07,0008.28
2024-02-16 00:08:00,SystemResetWarning,0823.8,5.01,000.00,021.3,020.8,000.0,029.8,023.0,21.3,0001.2,0009.01,0017.25,0008.41
2024-02-16 00:09:00,SystemResetWarning,0823.8,5.00,000.00,021.3,020.8,000.0,029.8,023.1,21.2,0001.3,0009.21,0017.81,0008.56
2024-02-16 00:10:00,SystemResetWarning,0823.8,5.00,000.00,021.3,020.8,000.0,029.8,023.1,21.1,0001.4,0009.40,0018.32,0008.70
2024-02-16 00:11:00,SystemResetWarning,0823.9,4.99,000.00,021.3,020.8,000.0,029.8,023.0,20.5,0001.2,0009.57,0018.84,0008.85
2024-02-16 00:12:00,SystemResetWarning,0823.9,4.99,000.00,021.3,020.7,000.0,029.8,023.0,20.8,0001.4,0009.74,0019.49,0008.96
2024-02-16 00:13:00,SystemResetWarning,0823.9,5.01,000.00,021.3,020.7,000.0,029.8,023.0,21.1,0001.6,0009.87,0020.20,0009.09
2024-02-16 00:14:00,SystemResetWarning,0824.0,5.01,000.00,021.3,020.7,000.0,029.8,023.0,21.2,0001.6,0010.02,0020.47,0009.21
2024-02-16 00:15:00,SystemResetWarning,0824.0,5.00,000.00,021.3,020.7,000.0,029.7,023.0,21.2,0001.6,0010.14,0021.07,0009.28
2024-02-16 00:16:00,SystemResetWarning,0824.2,5.00,000.00,021.3,020.7,000.0,029.7,023.0,21.1,0001.7,0010.19,0021.18,0009.31
2024-02-16 00:17:00,SystemResetWarning,0824.1,5.00,000.00,021.3,020.7,000.0,029.7,023.0,20.9,0002.0,0010.20,0022.08,0009.33
2024-02-16 00:18:00,SystemResetWarning,0824.2,4.99,000.00,021.3,020.7,000.0,029.7,023.0,20.8,0001.6,0010.21,0021.43,0009.32
2024-02-16 00:19:00,SystemResetWarning,0824.3,4.99,000.00,021.3,020.8,000.0,029.7,023.1,20.8,0001.7,0010.04,0019.61,0009.17
2024-02-16 00:20:00,SystemResetWarning,0824.4,5.00,000.00,021.3,020.8,000.0,029.7,023.1,20.8,0001.9,0009.87,0019.94,0009.02
2024-02-16 00:21:00,SystemResetWarning,0824.3,5.00,000.00,021.3,020.8,000.0,029.7,023.0,20.9,0001.6,0009.85,0019.49,0009.00
2024-02-16 00:22:00,SystemResetWarning,0824.3,5.00,000.00,021.3,020.8,000.0,029.7,023.1,20.9,0001.8,0009.85,0018.93,0008.99
2024-02-16 00:23:00,SystemResetWarning,0824.3,5.01,000.00,021.3,020.8,000.0,029.7,023.1,20.7,0001.6,0009.83,0018.23,0008.98
2024-02-16 00:24:00,SystemResetWarning,0824.3,5.01,000.00,021.3,020.8,000.0,029.7,023.1,20.2,0001.2,0009.82,0018.23,0008.96
2024-02-16 00:25:00,SystemResetWarning,0824.2,5.00,000.00,021.3,020.8,000.0,029.8,023.1,20.3,0001.0,0009.81,0018.16,0008.95
2024-02-16 00:26:00,SystemResetWarning,0824.2,5.00,000.00,021.3,020.9,000.0,029.8,023.1,20.4,0001.0,0009.78,0019.17,0008.94
2024-02-16 00:27:00,SystemResetWarning,0824.1,4.99,000.00,021.3,020.9,000.0,029.8,023.2,20.5,0000.8,0009.74,0018.30,0008.92
2024-02-16 00:28:00,SystemResetWarning,0824.2,4.99,000.00,021.3,020.9,000.0,029.8,023.2,20.4,0000.2,0009.66,0017.52,0008.85
2024-02-16 00:29:00,SystemResetWarning,0824.2,5.00,000.00,021.3,020.9,000.0,029.8,023.2,20.2,0000.3,0009.60,0016.71,0008.80
2024-02-16 00:30:00,SystemResetWarning,0824.2,5.01,000.00,021.4,020.9,000.0,029.8,023.2,18.9,0000.1,0009.62,0016.77,0008.82
2024-02-16 00:31:00,SystemResetWarning,0824.3,5.01,000.00,021.4,020.9,000.0,029.8,023.2,18.1,0000.2,0009.69,0016.93,0008.91
2024-02-16 00:32:00,SystemResetWarning,0824.2,5.01,000.00,021.4,020.9,000.0,029.8,023.2,19.5,0000.6,0009.47,0016.17,0008.72
2024-02-16 00:33:00,SystemResetWarning,0824.2,5.00,000.00,021.4,020.9,000.0,029.8,023.2,20.0,0000.8,0009.26,0015.91,0008.53
2024-02-16 00:34:00,SystemResetWarning,0824.2,5.00,000.00,021.4,020.9,000.0,029.8,023.2,19.8,0000.7,0009.12,0015.80,0008.41
2024-02-16 00:35:00,SystemResetWarning,0824.2,4.99,000.00,021.4,020.9,000.0,029.8,023.2,19.4,0000.7,0009.01,0016.99,0008.32
2024-02-16 00:36:00,SystemResetWarning,0824.1,4.99,000.00,021.4,020.9,000.0,029.8,023.2,19.3,0000.8,0008.89,0016.54,0008.24
2024-02-16 00:37:00,SystemResetWarning,0824.2,4.99,000.00,021.4,020.9,000.0,029.8,023.2,19.3,0000.7,0008.72,0014.52,0008.08
2024-02-16 00:38:00,SystemResetWarning,0824.1,5.00,000.00,021.4,020.9,000.0,029.8,023.2,19.4,0000.6,0008.34,0014.37,0007.71
2024-02-16 00:39:00,SystemResetWarning,0824.1,5.01,000.00,021.4,020.9,000.0,029.8,023.2,19.4,0000.6,0007.77,0013.72,0007.21
2024-02-16 00:40:00,SystemResetWarning,0824.1,5.00,000.00,021.4,020.9,000.0,029.8,023.2,19.2,0000.5,0007.66,0013.51,0007.09
2024-02-16 00:41:00,SystemResetWarning,0824.1,5.01,000.00,021.4,020.8,000.0,029.8,023.1,19.2,0001.0,0007.60,0013.30,0007.03
2024-02-16 00:42:00,SystemResetWarning,0824.1,5.00,000.00,021.4,020.8,000.0,029.8,023.1,19.3,0000.1,0007.49,0012.59,0006.91
2024-02-16 00:43:00,SystemResetWarning,0824.2,4.99,000.00,021.4,020.8,000.0,029.8,023.1,19.1,-000.4,0007.28,0012.35,0006.73
2024-02-16 00:44:00,SystemResetWarning,0824.3,4.99,000.00,021.3,020.8,000.0,029.8,023.1,19.3,-000.5,0006.93,0011.98,0006.40
2024-02-16 00:45:00,SystemResetWarning,0824.3,5.00,000.00,021.3,020.8,000.0,029.8,023.1,19.4,-000.7,0006.37,0011.18,0005.91
2024-02-16 00:46:00,SystemResetWarning,0824.3,5.01,000.00,021.3,020.8,000.0,029.8,023.1,19.4,-000.4,0005.91,0009.17,0005.50
2024-02-16 00:47:00,SystemResetWarning,0824.4,5.01,000.00,021.3,020.8,000.0,029.8,023.1,19.2,0000.0,0005.33,0008.28,0004.95
2024-02-16 00:48:00,SystemResetWarning,0824.3,5.01,000.00,021.3,020.8,000.0,029.8,023.1,19.0,0000.0,0004.75,0007.59,0004.42
2024-02-16 00:49:00,SystemResetWarning,0824.4,5.00,000.00,021.3,020.8,000.0,029.8,023.1,19.0,0000.0,0004.40,0006.79,0004.09
2024-02-16 00:50:00,SystemResetWarning,0824.4,5.00,000.00,021.3,020.8,000.0,029.8,023.1,19.1,0000.0,0004.28,0006.48,0003.98
2024-02-16 00:51:00,SystemResetWarning,0824.4,5.00,000.00,021.3,020.8,000.0,029.8,023.1,19.1,0000.0,0003.79,0005.46,0003.53
2024-02-16 00:52:00,SystemResetWarning,0824.4,4.99,000.00,021.3,020.8,000.0,029.8,023.1,19.2,0000.0,0003.09,0004.04,0002.80
2024-02-16 00:53:00,SystemResetWarning,0824.4,5.00,000.00,021.3,020.8,000.0,029.8,023.1,19.3,0000.0,0002.15,0002.88,0001.91
2024-02-16 00:54:00,SystemResetWarning,0824.4,5.01,000.00,021.3,020.8,000.0,029.8,023.1,19.3,0000.0,0001.49,0002.15,0001.29
2024-02-16 00:55:00,SystemResetWarning,0824.4,5.01,000.00,021.3,020.8,000.0,029.8,023.1,19.2,0000.0,0001.21,0002.64,0001.01
2024-02-16 00:56:00,SystemResetWarning,0824.4,5.01,000.00,021.3,020.8,000.0,029.8,023.1,19.2,0000.0,0001.11,0003.52,0000.93
2024-02-16 00:57:00,SystemResetWarning,0824.4,4.99,000.00,021.3,020.8,000.0,029.8,023.2,19.3,0000.0,0001.04,0003.45,0000.85
2024-02-16 00:58:00,SystemResetWarning,0824.4,4.98,000.00,021.3,020.8,000.0,029.8,023.1,19.4,0000.0,0000.98,0003.27,0000.82
2024-02-16 00:59:00,SystemResetWarning,0824.4,4.99,000.00,021.3,020.8,000.0,029.8,023.1,19.5,0000.0,0001.12,0003.80,0000.95
